プライン彗星

C/2020 H2 ( Pruyne )

English version
Home page
Updated on June 29, 2020

---------------------------------------------------------------------

・ プロフィール

発見日 2020年4月26日
発見光度 16.2等
発見者 Theodore A. Pruyne (Catalina Sky Survey)

・ 写真集

・ 軌道要素

Epoch 2020 Apr. 21.0 TT = JDT 2458960.5
T 2020 Apr. 27.58885 TT                                 Rudenko
q   0.8336129            (2000.0)            P               Q
z  +0.0054028      Peri.   26.69085     -0.13693997     -0.56815162
 +/-0.0001057      Node   277.63444     -0.99017006     +0.05496448
e   0.9954961      Incl.  125.04441     -0.02847262     +0.82108626
From 107 observations 2020 Apr. 26-June 8, mean residual 0".6.

・ 星図

・ 光度変化

        m1 = 15.0 + 5 logΔ + 10.0 log r

---------------------------------------------------------------------

軌道要素はM.P.E.C. 2020-M114に掲載されたものです。
星図はステラナビゲータ Ver.10 (アストロアーツ) で作成したものです。
光度グラフはComet for Windowsで作成したものです。

---------------------------------------------------------------------

Copyright(C) Seiichi Yoshida (comet@aerith.net). All rights reserved.